[[{"header":{"parameterUnit":"m.s-1","parameterCategory":1,"la1":30.2991,"la2":30.254,"lo1":-89.0895,"lo2":-89.0444,"dy":0.0017,"dx":0.0017,"nx":28,"ny":28,"refTime":"2023-10-05T03:00:00:Z","depth":0,"parameterNumber":2,"parameterNumberName":"U-component_of_WINDS"},"data":[0,0,0,0,0,0,0,0,0,0,0,0,0,0,0,0,0,0,0,0,0,0,0,0,0,0,0,0,0,0,0,0,0,0,0,0,0,0,0,0,0,0,0,0,0,0,0,0,0,0,0,0,0,0,0,0,0,0,-0.3349,-0.335,0,-0.3401,-0.3402,-0.3402,-0.3384,-0.3383,-0.3382,-0.3381,-0.3437,-0.344,-0.3442,0,0,0,0,0,0,0,0,0,0,0,0,0,-0.3239,-0.3241,-0.3349,-0.335,-0.3351,-0.3401,-0.3402,-0.3402,-0.3385,-0.3383,-0.3382,-0.3381,-0.3436,-0.3439,-0.3443,0,0,0,0,0,0,0,0,0,0,0,0,0,-0.3288,-0.3241,-0.3349,-0.3348,-0.3348,-0.3401,-0.3402,-0.3402,-0.3385,-0.3383,-0.3381,-0.338,-0.3435,-0.3439,-0.3443,-0.3501,0,0,-0.3455,-0.3456,0,0,0,0,0,0,0,0,-0.3285,-0.3292,-0.3347,-0.3348,-0.3348,-0.3384,-0.3383,-0.3436,-0.3385,-0.3371,-0.3381,-0.3379,-0.3421,-0.3426,-0.344,-0.3504,-0.3506,-0.3455,-0.3457,-0.3459,-0.346,0,0,0,0,0,0,0,-0.3282,-0.329,-0.337,-0.3348,-0.3349,-0.3346,-0.3351,-0.3393,-0.3405,-0.3372,-0.3371,-0.3377,-0.3421,-0.3436,-0.3441,-0.3507,-0.3455,-0.3458,-0.3461,-0.3462,-0.3621,-0.3623,0,0,0,0,0,0,-0.3278,-0.3287,-0.3368,-0.3371,-0.3312,-0.3349,-0.3355,-0.3375,-0.3405,-0.3408,-0.3379,-0.3376,-0.343,-0.3437,-0.3443,-0.3513,-0.3459,-0.3463,-0.3465,-0.3619,-0.3622,-0.3624,0,0,0,0,0,0,-0.3275,-0.3285,-0.3366,-0.3329,-0.3339,-0.3353,-0.3375,-0.3377,-0.3391,-0.341,-0.3412,-0.3391,-0.3429,-0.3437,-0.3486,-0.3515,-0.3464,-0.3468,-0.3617,-0.362,-0.3623,-0.3653,0,0,0,0,0,0,-0.3272,-0.3284,-0.3306,-0.333,-0.3341,-0.3408,-0.3377,-0.3379,-0.3398,-0.3395,-0.3422,-0.3425,-0.3429,-0.3481,-0.349,-0.3519,-0.3471,-0.3615,-0.3618,-0.3622,-0.365,-0.3657,-0.3663,0,0,0,0,0,-0.3268,-0.3313,-0.3307,-0.3317,-0.3368,-0.341,-0.3416,-0.3419,-0.34,-0.3422,-0.3434,-0.3424,-0.351,-0.3486,-0.3497,-0.3527,-0.3613,-0.3617,-0.3621,-0.3647,-0.3656,-0.3663,0,0,0,0,0,0,-0.3294,-0.3316,-0.331,-0.3363,-0.3385,-0.3407,-0.3435,-0.3428,-0.3456,-0.3452,-0.3455,-0.3461,-0.3511,-0.3524,-0.3497,-0.3585,-0.3559,-0.3565,-0.3575,-0.3583,-0.3589,-0.3585,-0.3474,0,0,0,0,0,-0.3306,-0.3337,-0.3355,-0.3401,-0.3411,-0.3421,-0.344,-0.3439,-0.3462,-0.3471,-0.3486,-0.351,-0.3542,-0.3563,-0.3593,-0.3651,-0.3657,-0.3677,-0.3684,-0.3689,-0.3695,-0.3727,-0.3736,-0.3638,-0.3638,-0.3638,0,0,-0.3331,-0.3347,-0.3366,-0.3406,-0.3422,-0.3455,-0.3429,-0.3465,-0.349,-0.3477,-0.3524,-0.3536,-0.3562,-0.3616,-0.364,-0.3628,-0.3723,-0.3695,-0.3699,-0.3702,-0.3732,-0.3741,-0.375,-0.3641,-0.364,-0.364,0,0,-0.3392,-0.3407,-0.3447,-0.3464,-0.3488,-0.3495,-0.3504,-0.3527,-0.3534,-0.3581,-0.3572,-0.3602,-0.3657,-0.3676,-0.3693,-0.3762,-0.3754,-0.3772,-0.3806,-0.3837,-0.3845,-0.3851,-0.3876,-0.3885,-0.3777,-0.3777,-0.3778,0,-0.3421,-0.3469,-0.3469,-0.3505,-0.3523,-0.3512,-0.3552,-0.3569,-0.3603,-0.3616,-0.3601,-0.367,-0.3687,-0.3745,-0.3762,-0.3776,-0.3787,-0.3769,-0.3843,-0.385,-0.3857,-0.388,-0.3889,-0.3779,-0.3779,-0.3779,-0.3779,0,-0.3502,-0.3536,-0.3565,-0.3597,-0.3618,-0.3656,-0.3663,-0.3685,-0.3683,-0.3691,-0.3739,-0.3758,-0.3792,-0.3806,-0.3805,-0.3864,-0.3856,-0.3842,-0.3816,-0.3868,-0.389,-0.3899,-0.3782,-0.3782,-0.3781,-0.3781,0,0,-0.3582,-0.3613,-0.3624,-0.3638,-0.3664,-0.3691,-0.3729,-0.3761,-0.378,-0.3804,-0.3836,-0.3883,-0.387,-0.3889,-0.389,-0.3917,-0.397,-0.39,-0.3901,-0.3913,-0.4037,-0.4047,-0.4058,-0.3965,-0.3967,-0.3968,-0.4035,0,-0.3646,-0.3712,-0.3713,-0.3774,-0.3805,-0.3795,-0.3828,-0.3848,-0.3857,-0.3885,-0.3895,-0.3928,-0.3909,-0.392,-0.3946,-0.3958,-0.3995,-0.3953,-0.3996,-0.3998,-0.399,-0.4069,-0.408,-0.4142,-0.4044,-0.4045,-0.4046,0,-0.373,-0.3755,-0.3819,-0.3841,-0.3854,-0.3884,-0.3913,-0.394,-0.3963,-0.3968,-0.3988,-0.3985,-0.4025,-0.3997,-0.4052,-0.4024,-0.4041,-0.4049,-0.4052,-0.4056,-0.4025,-0.4076,-0.4162,-0.4172,-0.406,-0.4059,-0.4058,0,-0.3782,-0.3832,-0.3877,-0.3889,-0.3916,-0.3937,-0.3949,-0.397,-0.3989,-0.4016,-0.4028,-0.4059,-0.4076,-0.4101,-0.4106,-0.4085,-0.4161,-0.4134,-0.4166,-0.4166,-0.4183,-0.4182,-0.4274,-0.4194,-0.4194,-0.4194,-0.4193,0,-0.3854,-0.3894,-0.3901,-0.3928,-0.3972,-0.3973,-0.4017,-0.4028,-0.4047,-0.4076,-0.407,-0.4098,-0.4103,-0.4133,-0.4137,-0.4182,-0.419,-0.4195,-0.4196,-0.4196,-0.4195,-0.4208,-0.4204,-0.4196,-0.4196,-0.4195,-0.4195,0,-0.392,-0.3926,-0.3974,-0.3995,-0.4001,-0.4032,-0.405,-0.4077,-0.4084,-0.4122,-0.4131,-0.4143,-0.4178,-0.4185,-0.4227,-0.423,-0.4283,-0.428,-0.4275,-0.4275,-0.4307,-0.4304,-0.441,-0.4424,-0.4335,-0.4336,-0.4337,0,-0.3966,-0.3996,-0.4019,-0.4038,-0.4051,-0.4082,-0.4101,-0.4104,-0.4124,-0.4152,-0.4176,-0.4209,-0.4236,-0.4292,-0.4305,-0.4337,-0.4334,-0.4369,-0.4339,-0.4338,-0.4335,-0.4333,-0.4336,-0.4375,-0.4376,-0.4377,-0.4377,0,-0.4046,-0.4047,-0.4075,-0.4104,-0.4127,-0.415,-0.4172,-0.4188,-0.4194,-0.4217,-0.4252,-0.4273,-0.4314,-0.4348,-0.438,-0.4393,-0.4387,-0.4386,-0.4396,-0.4396,-0.4393,-0.4395,-0.4291,-0.4384,-0.4384,-0.4383,-0.4383,-0.4382,-0.4103,-0.4129,-0.415,-0.4181,-0.4197,-0.4218,-0.4244,-0.4254,-0.4283,-0.4316,-0.4316,-0.4354,-0.4376,-0.4418,-0.4433,-0.4463,-0.4453,-0.4466,-0.4469,-0.4473,-0.4476,-0.4387,-0.4469,-0.4469,-0.4469,-0.4469,-0.4468,0,-0.4183,-0.4196,-0.4224,-0.4255,-0.4279,-0.427,-0.4294,-0.4315,-0.4348,-0.4369,-0.4395,-0.4436,-0.4468,-0.4483,-0.4515,-0.4537,-0.4535,-0.4545,-0.4544,-0.4547,-0.4483,-0.4472,-0.4546,-0.4546,-0.4546,-0.4546,-0.4546,-0.4546,-0.4228,-0.4271,-0.4275,-0.4327,-0.434,-0.4376,-0.4391,-0.441,-0.4426,-0.4471,-0.4497,-0.4507,-0.4526,-0.4559,-0.4588,-0.4592,-0.4605,-0.4617,-0.4619,-0.4559,-0.4552,-0.4544,-0.4534,-0.4619,-0.4619,-0.468,-0.4681,-0.4681]},{"header":{"parameterUnit":"m.s-1","parameterCategory":1,"la1":30.2991,"la2":30.254,"lo1":-89.0895,"lo2":-89.0444,"dy":0.0017,"dx":0.0017,"nx":28,"ny":28,"refTime":"2023-10-05T03:00:00:Z","depth":0,"parameterNumber":3,"parameterNumberName":"V-component_of_WINDS"},"data":[0,0,0,0,0,0,0,0,0,0,0,0,0,0,0,0,0,0,0,0,0,0,0,0,0,0,0,0,0,0,0,0,0,0,0,0,0,0,0,0,0,0,0,0,0,0,0,0,0,0,0,0,0,0,0,0,0,0,-3.4906,-3.4906,0,-3.4987,-3.4988,-3.4989,-3.4963,-3.4961,-3.4959,-3.4958,-3.5041,-3.5045,-3.5049,0,0,0,0,0,0,0,0,0,0,0,0,0,-3.4729,-3.4732,-3.4905,-3.4906,-3.4908,-3.4987,-3.4988,-3.4989,-3.4963,-3.4961,-3.4959,-3.4957,-3.504,-3.5045,-3.5049,0,0,0,0,0,0,0,0,0,0,0,0,0,-3.4808,-3.4733,-3.4905,-3.4904,-3.4905,-3.4987,-3.4988,-3.499,-3.4964,-3.4961,-3.4958,-3.4956,-3.5039,-3.5044,-3.505,-3.5138,0,0,-3.5068,-3.507,0,0,0,0,0,0,0,0,-3.4803,-3.4814,-3.4903,-3.4904,-3.4905,-3.4962,-3.4956,-3.5039,-3.4964,-3.4941,-3.4958,-3.4955,-3.5017,-3.5025,-3.5046,-3.5142,-3.5145,-3.5068,-3.5072,-3.5074,-3.5076,0,0,0,0,0,0,0,-3.4798,-3.481,-3.4938,-3.4905,-3.4906,-3.49,-3.4908,-3.4972,-3.4993,-3.4943,-3.4941,-3.4952,-3.5017,-3.504,-3.5047,-3.5147,-3.5068,-3.5073,-3.5077,-3.5079,-3.5323,-3.5325,0,0,0,0,0,0,-3.4791,-3.4806,-3.4935,-3.494,-3.4847,-3.4905,-3.4915,-3.4947,-3.4992,-3.4997,-3.4954,-3.495,-3.5032,-3.5041,-3.505,-3.5158,-3.5074,-3.508,-3.5083,-3.532,-3.5323,-3.5326,0,0,0,0,0,0,-3.4788,-3.4803,-3.4932,-3.4873,-3.4889,-3.4911,-3.4947,-3.495,-3.4972,-3.5,-3.5004,-3.4973,-3.503,-3.5042,-3.5117,-3.5161,-3.5082,-3.5087,-3.5316,-3.5321,-3.5325,-3.5374,0,0,0,0,0,0,-3.4783,-3.4802,-3.4835,-3.4874,-3.4892,-3.4997,-3.495,-3.4953,-3.4982,-3.4978,-3.5019,-3.5024,-3.5029,-3.5109,-3.5123,-3.5167,-3.5092,-3.5312,-3.5318,-3.5323,-3.5369,-3.538,-3.5389,0,0,0,0,0,-3.4777,-3.4845,-3.4837,-3.4853,-3.4934,-3.4999,-3.501,-3.5014,-3.4986,-3.502,-3.5038,-3.5022,-3.5154,-3.5117,-3.5132,-3.5179,-3.531,-3.5316,-3.5323,-3.5364,-3.5378,-3.5389,0,0,0,0,0,0,-3.481,-3.485,-3.4841,-3.4924,-3.4959,-3.4995,-3.5038,-3.5028,-3.5071,-3.5066,-3.5069,-3.5079,-3.5157,-3.5175,-3.5133,-3.5268,-3.5228,-3.5238,-3.5253,-3.5266,-3.5277,-3.5271,-3.5097,0,0,0,0,0,-3.4827,-3.4877,-3.4909,-3.4979,-3.4997,-3.5015,-3.5043,-3.5044,-3.508,-3.5094,-3.5118,-3.5154,-3.5203,-3.5236,-3.5283,-3.5371,-3.5381,-3.5412,-3.5422,-3.543,-3.5439,-3.549,-3.5505,-3.5349,-3.5349,-3.5349,0,0,-3.4863,-3.4891,-3.4922,-3.4987,-3.5014,-3.5066,-3.5027,-3.5083,-3.5123,-3.5103,-3.5176,-3.5195,-3.5235,-3.5318,-3.5356,-3.5336,-3.5485,-3.5439,-3.5445,-3.545,-3.5499,-3.5514,-3.5527,-3.5353,-3.5352,-3.5352,0,0,-3.4956,-3.4981,-3.5043,-3.5072,-3.5113,-3.5125,-3.514,-3.5178,-3.519,-3.5264,-3.5251,-3.5298,-3.5382,-3.5412,-3.5439,-3.5546,-3.5533,-3.5561,-3.5615,-3.5664,-3.5677,-3.5688,-3.5728,-3.5742,-3.5569,-3.557,-3.557,0,-3.4995,-3.5073,-3.5076,-3.5135,-3.5165,-3.515,-3.5215,-3.5242,-3.5297,-3.5318,-3.5295,-3.5403,-3.5429,-3.552,-3.5546,-3.5567,-3.5586,-3.5556,-3.5674,-3.5685,-3.5696,-3.5734,-3.5749,-3.5573,-3.5572,-3.5572,-3.5572,0,-3.512,-3.5175,-3.522,-3.5275,-3.531,-3.5371,-3.5385,-3.542,-3.5418,-3.5433,-3.5509,-3.554,-3.5594,-3.5615,-3.5614,-3.5707,-3.5694,-3.5673,-3.5632,-3.5714,-3.575,-3.5765,-3.5577,-3.5576,-3.5575,-3.5574,0,0,-3.5235,-3.5292,-3.5309,-3.5335,-3.5381,-3.5424,-3.5485,-3.5539,-3.557,-3.5608,-3.5661,-3.5734,-3.5716,-3.5746,-3.5748,-3.5791,-3.5877,-3.5765,-3.5766,-3.5786,-3.5985,-3.6001,-3.6018,-3.5869,-3.5872,-3.5874,-3.5982,0,-3.5332,-3.544,-3.5447,-3.5545,-3.5597,-3.5585,-3.5639,-3.5673,-3.5689,-3.5736,-3.5753,-3.5806,-3.5776,-3.5795,-3.5837,-3.5857,-3.5917,-3.5849,-3.5919,-3.5922,-3.5911,-3.6037,-3.6054,-3.6154,-3.5996,-3.5998,-3.6,0,-3.546,-3.5505,-3.5608,-3.5649,-3.5671,-3.572,-3.5771,-3.5815,-3.5855,-3.5864,-3.5899,-3.5895,-3.596,-3.5916,-3.6006,-3.596,-3.5989,-3.6004,-3.6008,-3.6015,-3.5966,-3.6049,-3.6186,-3.6202,-3.6022,-3.602,-3.6019,0,-3.5536,-3.5621,-3.5695,-3.5717,-3.5767,-3.5801,-3.5823,-3.5861,-3.5894,-3.5938,-3.596,-3.6011,-3.604,-3.6081,-3.6092,-3.6059,-3.6182,-3.6139,-3.6193,-3.6193,-3.622,-3.6218,-3.6365,-3.6236,-3.6236,-3.6236,-3.6235,0,-3.5645,-3.571,-3.573,-3.5776,-3.5848,-3.5856,-3.5927,-3.5947,-3.5981,-3.6032,-3.6024,-3.6071,-3.6082,-3.6132,-3.6141,-3.6216,-3.6228,-3.6238,-3.624,-3.624,-3.6239,-3.6259,-3.6253,-3.624,-3.6239,-3.6238,-3.6237,0,-3.5742,-3.5758,-3.5838,-3.5879,-3.5891,-3.5943,-3.5979,-3.6023,-3.6038,-3.6102,-3.6118,-3.6142,-3.6201,-3.6216,-3.6285,-3.6292,-3.638,-3.6375,-3.6367,-3.6367,-3.6421,-3.6416,-3.6587,-3.6611,-3.6465,-3.6466,-3.6467,0,-3.5811,-3.5861,-3.5908,-3.5941,-3.5965,-3.6019,-3.6053,-3.6062,-3.6098,-3.6149,-3.6188,-3.6246,-3.6293,-3.6387,-3.6412,-3.6466,-3.6462,-3.6519,-3.647,-3.6469,-3.6466,-3.6463,-3.6469,-3.6528,-3.6529,-3.6531,-3.6532,0,-3.5933,-3.5939,-3.5988,-3.6042,-3.6083,-3.6124,-3.6165,-3.6193,-3.6208,-3.6249,-3.6309,-3.6346,-3.6418,-3.6477,-3.6532,-3.6555,-3.6547,-3.6547,-3.6562,-3.6563,-3.6558,-3.6563,-3.6394,-3.6543,-3.6542,-3.6541,-3.654,-3.654,-3.6019,-3.6064,-3.6105,-3.6161,-3.6192,-3.6231,-3.6275,-3.6297,-3.6348,-3.6408,-3.641,-3.6477,-3.6518,-3.6591,-3.6618,-3.6671,-3.6654,-3.6676,-3.6682,-3.6687,-3.6693,-3.6548,-3.668,-3.668,-3.668,-3.668,-3.6679,0,-3.6142,-3.6169,-3.622,-3.6277,-3.6322,-3.631,-3.6355,-3.6393,-3.6452,-3.6491,-3.6538,-3.6609,-3.6666,-3.6696,-3.6753,-3.6789,-3.6787,-3.6804,-3.6802,-3.6808,-3.6704,-3.6685,-3.6805,-3.6805,-3.6805,-3.6805,-3.6805,-3.6805,-3.6212,-3.6287,-3.6299,-3.6391,-3.6417,-3.6482,-3.6509,-3.6545,-3.6576,-3.6656,-3.6704,-3.6723,-3.6759,-3.6819,-3.6872,-3.6879,-3.6901,-3.6921,-3.6926,-3.6828,-3.6815,-3.6803,-3.6786,-3.6925,-3.6925,-3.7027,-3.7028,-3.7029]}]]